Regional Weather Roundup
Issued by NWS Newport/Morehead, NC

Current Version | Previous Version | Text Only | Print | Product List | Glossary On
Versions: 1 2 3 4 5 6 7 8 9 10 11 12 13 14 15 16 17 18 19 20 21 22 23 24 25 26 27 28 29 30 31 32 33 34 35 36 37 38 39 40 41 42 43 44 45 46 47 48 49 50
000 ASUS42 KMHX 061825 RWRMHX WEATHER ROUNDUP FOR EASTERN NORTH CAROLINA NATIONAL WEATHER SERVICE NEWPORT/MOREHEAD CITY NC 200 PM EDT MON JUL 06 2015 NOTE: "FAIR" INDICATES FEW OR NO CLOUDS BELOW 12,000 FEET WITH NO SIGNIFICANT WEATHER AND/OR OBSTRUCTIONS TO VISIBILITY NCZ015>017-031-032-045>047-102-103-061900- NORTH COAST CITY SKY/WX TMP DP RH WIND PRES REMARKS EDENTON RAIN 79 74 85 SW8 30.12S ELIZABETH CITY MOSUNNY 85 75 72 SE14G20 30.11F KITTY HAWK MOCLDY 87 75 67 S8 30.12F MANTEO PTSUNNY 78 72 80 W9 30.13F $$ NCZ045>047-081-094-103-104-061900- CENTRAL COAST CITY SKY/WX TMP DP RH WIND PRES REMARKS FRISCO MOSUNNY 82 74 76 S13 30.16F SWANQUARTER N/A 82 N/A N/A S10G16 30.09F $$ NCZ095-097-098-100-101-061900- SOUTHERN COAST CITY SKY/WX TMP DP RH WIND PRES REMARKS BEAUFORT MOSUNNY 85 75 72 S13 30.14F CEDAR ISLAND N/A 86 N/A N/A SE9G20 30.18S JACKSONVILLE MOSUNNY 86 73 65 S12 30.11F PINEY ISLAND MOCLDY N/A N/A N/A S15 30.13F WILMINGTON SUNNY 89 68 49 SW7 30.11F $$ NCZ011>013-027>030-043-044-078>080-089-090>093-098-061900- COASTAL PLAIN CITY SKY/WX TMP DP RH WIND PRES REMARKS AHOSKIE MOSUNNY N/A N/A N/A CALM 30.09F CLINTON MOSUNNY 88 70 55 SW3 30.11S ELIZABETHTOWN MOSUNNY 88 68 50 SW5 30.11F GOLDSBORO MOSUNNY 89 69 51 SW9 30.08F GREENVILLE MOSUNNY 90 70 51 SW7 30.11F HAVELOCK MOSUNNY 88 72 58 SW14G23 30.13F KENANSVILLE MOSUNNY 88 64 44 SW5 30.11F KINSTON MOSUNNY 90 68 48 SW10 30.11F NEW BERN MOSUNNY 86 75 69 SE6 30.13F RICHLANDS PTSUNNY 91 70 49 S9 30.10F ROCKY MOUNT MOSUNNY 90 70 51 SW8 30.10F WASHINGTON MOSUNNY 81 74 80 S7 30.11F WHITEVILLE MOSUNNY 87 68 52 SW3 30.11F $$ AMZ130-135-150-152-154-156-158-170-250-252-270-ANZ085-086-088-633-658-670-061900- MARINE OBSERVATIONS STATION/POSITION TIME TEMP WIND PRES WAVE SWELL AIR SEA DIR/SP/G HT/PER HT/PER (UTC) (F) (DEG/KT/KT) (MB) (FT/S) (FT/S) CHESAPEAKE LIGHT 1800 78 170/ 18/ 19 1019.5 64 E VA BEACH 1750 78 77 190/ 12/ 14 1020.2 3/ 8 2/ 8 DUCK 1800 81 78 180/ 15/ 17 N/A 2 E DUCK 1711 78 N/A 2/13 2/13 OREGON INLET 1800 80 83 190/ 13/ 15 1020.6 13E OREGON INLT 1800 79 N/A 3/13 2/13 HATTERAS CG 1800 83 80 160/ 8/ 13 1020.7 DIAMOND BUOY 1750 80 82 200/ 16/ 17 1021.1 3/ 9 2/ 9 CAPE LOOKOUT 1800 80 170/ 10/ 11 1020.6 BEAUFORT LAB 1800 81 81 180/ 10/ 11 1019.9 30 SE NEW RVR IN NOT AVBL 27 SE WRIGHTSVLE 1800 80 230/ 10/ 10 N/A 5 SE WRIGHTSVLE 1708 80 79 210/ 12/ 16 1020.5 225 S CAPE HAT 1750 81 80 180/ 8/ 10 1023.0 4/ 8 3/ 8 41 SE CHARLESTON 1750 80 83 230/ 8/ 12 1020.5 3/ 9 3/ 9 $$

USA.gov is the U.S. government's official web portal to all federal, state and local government web resources and services.